Location: Prague
(50.0830°N, 14.4670°E)
Time: 11:07:30
(UTC+01:00)

AO-7 - Pass Details

Date: 11 December 2021
Orbit: 1440 x 1459 km, 101.9° (Epoch: 29 January)

Event Time Altitude Azimuth Distance (km) Brightness Sun altitude
Rises 07:07:02 0° 19° (NNE) 4,550 ? -6.8°
Reaches altitude 10° 07:10:30 10° 6° (N) 3,571 ? -6.3°
Maximum altitude 07:16:29 23° 319° (NW) 2,702 ? -5.5°
Drops below altitude 10° 07:22:29 10° 273° (W) 3,571 ? -4.6°
Sets 07:25:58 0° 260° (W) 4,550 ? -4.2°
